TimeADT,TemperatureF,Dew PointF,Humidity,Sea Level PressureIn,VisibilityMPH,Wind Direction,Wind SpeedMPH,Gust SpeedMPH,PrecipitationIn,Events,Conditions,WindDirDegrees,DateUTC
12:00 AM,46,45,96,29.78,,Calm,Calm,,,,,,2012-10-02 03:00:00
12:00 AM,45.9,45.1,97,29.78,-9999.0,Calm,Calm,-,N/A,,Unknown,0,2012-10-02 03:00:00
1:00 AM,45.3,44.8,98,29.80,-9999.0,NE,2.3,-,N/A,,Unknown,40,2012-10-02 04:00:00
2:00 AM,44.4,43.9,98,29.82,-9999.0,Calm,Calm,-,N/A,,Unknown,0,2012-10-02 05:00:00
3:00 AM,43,42,96,29.82,,East,2.3,,,,,100,2012-10-02 06:00:00
4:00 AM,42.8,42.3,98,29.83,-9999.0,Calm,Calm,-,N/A,,Unknown,0,2012-10-02 07:00:00
5:00 AM,48.4,48.0,99,29.84,-9999.0,WNW,3.5,-,N/A,,Unknown,290,2012-10-02 08:00:00
6:00 AM,53,53,99,29.83,,West,4.6,,,,,260,2012-10-02 09:00:00
6:00 AM,53.4,52.9,98,29.83,-9999.0,West,4.6,-,N/A,,Unknown,260,2012-10-02 09:00:00
8:00 AM,50.4,49.3,96,29.88,-9999.0,WNW,1.2,-,N/A,,Unknown,300,2012-10-02 11:00:00
9:00 AM,56,52,83,29.91,,WSW,5.8,,,,,250,2012-10-02 12:00:00
9:00 AM,55.8,52.3,88,29.91,-9999.0,WSW,5.8,-,N/A,,Unknown,250,2012-10-02 12:00:00
10:00 AM,59.5,54.1,82,29.93,-9999.0,WSW,8.1,-,N/A,,Unknown,250,2012-10-02 13:00:00
11:00 AM,63.0,53.8,72,29.93,-9999.0,West,6.9,-,N/A,,Unknown,260,2012-10-02 14:00:00
12:00 PM,66,54,56,29.94,,WSW,11.5,,,,,250,2012-10-02 15:00:00
12:00 PM,65.8,54.1,66,29.94,-9999.0,WSW,11.5,18.4,N/A,,Unknown,250,2012-10-02 15:00:00
1:00 PM,68.2,54.0,60,29.94,-9999.0,West,9.2,-,N/A,,Unknown,260,2012-10-02 16:00:00
2:00 PM,69.8,53.2,56,29.94,-9999.0,WSW,9.2,-,N/A,,Unknown,250,2012-10-02 17:00:00
3:00 PM,71,53,43,29.92,,West,8.1,,,,,270,2012-10-02 18:00:00
3:00 PM,71.2,53.2,53,29.92,-9999.0,West,8.1,-,N/A,,Unknown,270,2012-10-02 18:00:00
4:00 PM,72.1,53.2,51,29.92,-9999.0,West,8.1,-,N/A,,Unknown,270,2012-10-02 19:00:00
5:00 PM,70.0,54.9,59,29.92,-9999.0,West,5.8,-,N/A,,Unknown,260,2012-10-02 20:00:00
6:00 PM,68,57,58,29.94,,WSW,3.5,,,,,250,2012-10-02 21:00:00
6:00 PM,68.4,56.7,66,29.94,-9999.0,WSW,3.5,-,N/A,,Unknown,250,2012-10-02 21:00:00
7:00 PM,65.3,57.9,77,29.95,-9999.0,WSW,3.5,-,N/A,,Unknown,250,2012-10-02 22:00:00
8:00 PM,63.5,57.2,80,29.96,-9999.0,West,3.5,-,N/A,,Unknown,260,2012-10-02 23:00:00
9:00 PM,61,57,82,29.98,,WSW,3.5,,,,,240,2012-10-03 00:00:00
9:00 PM,61.2,57.0,86,29.98,-9999.0,WSW,3.5,-,N/A,,Unknown,240,2012-10-03 00:00:00
10:00 PM,59.4,56.7,91,29.99,-9999.0,WNW,1.2,-,N/A,,Unknown,290,2012-10-03 01:00:00
11:00 PM,56.3,54.5,94,30.00,-9999.0,West,1.2,-,N/A,,Unknown,270,2012-10-03 02:00:00